Time,TemperatureF,DewpointF,PressureIn,WindDirection,WindDirectionDegrees,WindSpeedMPH,WindSpeedGustMPH,Humidity,HourlyPrecipIn,Conditions,Clouds,dailyrainin,SoftwareType,DateUTC
2013-03-06 00:02:00,34.0,25.0,29.92,ENE,74,0.0,-999.0,70,-99.99,,,-99.99,,2013-03-06 05:02:00,
2013-03-06 00:11:00,34.0,26.0,29.92,ESE,105,1.0,-999.0,71,-99.99,,,-99.99,,2013-03-06 05:11:00,
2013-03-06 00:22:00,34.0,26.0,29.92,ESE,105,1.0,-999.0,71,-99.99,,,-99.99,,2013-03-06 05:22:00,
2013-03-06 00:32:00,34.0,26.0,29.92,ESE,105,1.0,-999.0,71,-99.99,,,-99.99,,2013-03-06 05:32:00,
2013-03-06 00:42:00,34.0,26.0,29.92,ESE,105,1.0,-999.0,71,-99.99,,,-99.99,,2013-03-06 05:42:00,
2013-03-06 00:52:00,34.0,26.0,29.91,East,89,0.0,-999.0,72,-99.99,,,-99.99,,2013-03-06 05:52:00,
2013-03-06 01:02:00,34.0,26.0,29.91,ENE,61,0.0,-999.0,72,-99.99,,,-99.99,,2013-03-06 06:02:00,
2013-03-06 01:11:00,34.0,26.0,29.91,ENE,61,0.0,-999.0,72,-99.99,,,-99.99,,2013-03-06 06:11:00,
2013-03-06 01:22:00,34.0,26.0,29.91,ENE,63,0.0,-999.0,73,-99.99,,,-99.99,,2013-03-06 06:22:00,
2013-03-06 01:32:00,34.0,26.0,29.90,ENE,69,0.0,-999.0,73,-99.99,,,-99.99,,2013-03-06 06:32:00,
2013-03-06 01:42:00,34.0,26.0,29.90,ENE,69,0.0,-999.0,73,-99.99,,,-99.99,,2013-03-06 06:42:00,
2013-03-06 01:52:00,34.0,26.0,29.90,ENE,69,0.0,-999.0,73,-99.99,,,-99.99,,2013-03-06 06:52:00,
2013-03-06 02:01:00,34.0,26.0,29.89,ENE,69,0.0,-999.0,73,-99.99,,,-99.99,,2013-03-06 07:01:00,
2013-03-06 02:11:00,34.0,26.0,29.89,ENE,69,0.0,-999.0,73,-99.99,,,-99.99,,2013-03-06 07:11:00,
2013-03-06 02:22:00,34.0,27.0,29.89,ENE,69,0.0,-999.0,74,-99.99,,,-99.99,,2013-03-06 07:22:00,
2013-03-06 02:32:00,34.0,27.0,29.88,East,84,0.0,-999.0,74,-99.99,,,-99.99,,2013-03-06 07:32:00,
2013-03-06 02:42:00,34.0,27.0,29.88,East,84,0.0,-999.0,74,-99.99,,,-99.99,,2013-03-06 07:42:00,
2013-03-06 02:52:00,34.0,27.0,29.88,ENE,71,0.0,-999.0,74,-99.99,,,-99.99,,2013-03-06 07:52:00,
2013-03-06 03:01:00,34.0,27.0,29.86,East,82,0.0,-999.0,75,-99.99,,,-99.99,,2013-03-06 08:01:00,
2013-03-06 03:11:00,34.0,27.0,29.86,East,82,0.0,-999.0,75,-99.99,,,-99.99,,2013-03-06 08:11:00,
2013-03-06 03:21:00,34.0,27.0,29.86,East,98,2.0,-999.0,76,-99.99,,,-99.99,,2013-03-06 08:21:00,
2013-03-06 03:32:00,35.0,29.0,29.85,ENE,69,2.0,-999.0,77,-99.99,,,-99.99,,2013-03-06 08:32:00,
2013-03-06 03:42:00,35.0,29.0,29.85,ENE,69,2.0,-999.0,77,-99.99,,,-99.99,,2013-03-06 08:42:00,
2013-03-06 03:52:00,35.0,29.0,29.84,ESE,123,1.0,-999.0,78,-99.99,,,-99.99,,2013-03-06 08:52:00,
2013-03-06 04:01:00,35.0,29.0,29.83,East,93,2.0,-999.0,78,-99.99,,,-99.99,,2013-03-06 09:01:00,
2013-03-06 04:12:00,35.0,29.0,29.83,East,93,2.0,-999.0,78,-99.99,,,-99.99,,2013-03-06 09:12:00,
2013-03-06 04:21:00,35.0,29.0,29.84,ENE,63,3.0,-999.0,79,-99.99,,,-99.99,,2013-03-06 09:21:00,
2013-03-06 04:32:00,35.0,30.0,29.84,ENE,69,3.0,-999.0,81,-99.99,,,-99.99,,2013-03-06 09:32:00,
2013-03-06 04:42:00,35.0,30.0,29.84,ENE,69,3.0,-999.0,81,-99.99,,,-99.99,,2013-03-06 09:42:00,
2013-03-06 04:52:00,35.0,30.0,29.84,East,85,3.0,-999.0,81,-99.99,,,-99.99,,2013-03-06 09:52:00,
2013-03-06 05:01:00,35.0,30.0,29.84,ESE,119,3.0,-999.0,81,-99.99,,,-99.99,,2013-03-06 10:01:00,
2013-03-06 05:11:00,35.0,30.0,29.84,ESE,119,3.0,-999.0,81,-99.99,,,-99.99,,2013-03-06 10:11:00,
2013-03-06 05:22:00,35.0,30.0,29.83,ESE,112,4.0,-999.0,82,-99.99,,,-99.99,,2013-03-06 10:22:00,
2013-03-06 05:32:00,35.0,30.0,29.83,ENE,76,3.0,-999.0,83,-99.99,,,-99.99,,2013-03-06 10:32:00,
2013-03-06 05:42:00,35.0,30.0,29.83,ENE,76,3.0,-999.0,83,-99.99,,,-99.99,,2013-03-06 10:42:00,
2013-03-06 05:52:00,35.0,30.0,29.83,North,360,3.0,-999.0,83,-99.99,,,-99.99,,2013-03-06 10:52:00,
2013-03-06 06:02:00,35.0,31.0,29.83,NE,37,4.0,-999.0,84,-99.99,,,-99.99,,2013-03-06 11:02:00,
2013-03-06 06:11:00,35.0,31.0,29.83,NE,37,4.0,-999.0,84,-99.99,,,-99.99,,2013-03-06 11:11:00,
2013-03-06 06:22:00,35.0,31.0,29.82,NNW,344,4.0,-999.0,84,-99.99,,,-99.99,,2013-03-06 11:22:00,
2013-03-06 06:32:00,35.0,30.0,29.83,ESE,119,4.0,-999.0,83,-99.99,,,-99.99,,2013-03-06 11:32:00,
2013-03-06 06:42:00,35.0,30.0,29.83,ESE,119,4.0,-999.0,83,-99.99,,,-99.99,,2013-03-06 11:42:00,
2013-03-06 06:52:00,35.0,30.0,29.83,NNE,28,6.0,-999.0,83,-99.99,,,-99.99,,2013-03-06 11:52:00,
2013-03-06 07:02:00,35.0,31.0,29.83,NNE,28,4.0,-999.0,84,-99.99,,,-99.99,,2013-03-06 12:02:00,
2013-03-06 07:11:00,35.0,31.0,29.83,NNE,28,4.0,-999.0,84,-99.99,,,-99.99,,2013-03-06 12:11:00,
2013-03-06 07:22:00,35.0,31.0,29.82,NE,52,5.0,-999.0,86,-99.99,,,-99.99,,2013-03-06 12:22:00,
2013-03-06 07:33:00,35.0,31.0,29.81,ENE,78,2.0,-999.0,86,-99.99,,,-99.99,,2013-03-06 12:33:00,
2013-03-06 07:42:00,35.0,31.0,29.81,ENE,78,2.0,-999.0,86,-99.99,,,-99.99,,2013-03-06 12:42:00,
2013-03-06 07:53:00,35.0,31.0,29.82,ENE,62,3.0,-999.0,85,-99.99,,,-99.99,,2013-03-06 12:53:00,
2013-03-06 08:02:00,35.0,31.0,29.82,NNW,339,4.0,-999.0,84,-99.99,,,-99.99,,2013-03-06 13:02:00,
2013-03-06 08:12:00,35.0,31.0,29.82,NNW,339,4.0,-999.0,84,-99.99,,,-99.99,,2013-03-06 13:12:00,
2013-03-06 08:22:00,35.0,30.0,29.84,NE,50,5.0,-999.0,83,-99.99,,,-99.99,,2013-03-06 13:22:00,
2013-03-06 08:32:00,36.0,31.0,29.83,NE,51,4.0,-999.0,82,-99.99,,,-99.99,,2013-03-06 13:32:00,
2013-03-06 08:42:00,36.0,31.0,29.83,NE,51,4.0,-999.0,82,-99.99,,,-99.99,,2013-03-06 13:42:00,
2013-03-06 08:52:00,36.0,31.0,29.84,SSE,149,5.0,-999.0,82,-99.99,,,-99.99,,2013-03-06 13:52:00,
2013-03-06 09:02:00,36.0,31.0,29.83,East,79,4.0,-999.0,82,-99.99,,,-99.99,,2013-03-06 14:02:00,
2013-03-06 09:11:00,36.0,31.0,29.83,East,79,4.0,-999.0,82,-99.99,,,-99.99,,2013-03-06 14:11:00,
2013-03-06 09:22:00,36.0,31.0,29.83,ENE,60,4.0,-999.0,81,-99.99,,,-99.99,,2013-03-06 14:22:00,
2013-03-06 09:32:00,36.0,31.0,29.83,East,84,4.0,-999.0,81,-99.99,,,-99.99,,2013-03-06 14:32:00,
2013-03-06 09:42:00,36.0,31.0,29.83,East,84,4.0,-999.0,81,-99.99,,,-99.99,,2013-03-06 14:42:00,
2013-03-06 09:53:00,36.0,30.0,29.83,East,92,6.0,-999.0,80,-99.99,,,-99.99,,2013-03-06 14:53:00,
2013-03-06 10:02:00,36.0,30.0,29.82,East,80,6.0,-999.0,80,-99.99,,,-99.99,,2013-03-06 15:02:00,
2013-03-06 10:11:00,36.0,30.0,29.82,East,80,6.0,-999.0,80,-99.99,,,-99.99,,2013-03-06 15:11:00,
2013-03-06 10:22:00,36.0,31.0,29.82,NE,46,6.0,-999.0,81,-99.99,,,-99.99,,2013-03-06 15:22:00,
2013-03-06 10:32:00,36.0,31.0,29.82,ENE,59,5.0,-999.0,82,-99.99,,,-99.99,,2013-03-06 15:32:00,
2013-03-06 10:42:00,36.0,31.0,29.82,ENE,59,5.0,-999.0,82,-99.99,,,-99.99,,2013-03-06 15:42:00,
2013-03-06 10:52:00,36.0,32.0,29.82,NE,40,4.0,-999.0,84,-99.99,,,-99.99,,2013-03-06 15:52:00,
2013-03-06 11:02:00,36.0,32.0,29.82,NE,35,5.0,-999.0,84,-99.99,,,-99.99,,2013-03-06 16:02:00,
2013-03-06 11:12:00,36.0,32.0,29.82,NE,35,5.0,-999.0,84,-99.99,,,-99.99,,2013-03-06 16:12:00,
2013-03-06 11:21:00,36.0,32.0,29.81,NE,46,4.0,-999.0,84,-99.99,,,-99.99,,2013-03-06 16:21:00,
2013-03-06 11:32:00,37.0,32.0,29.81,NE,43,4.0,-999.0,83,-99.99,,,-99.99,,2013-03-06 16:32:00,
2013-03-06 11:42:00,37.0,32.0,29.81,NE,43,4.0,-999.0,83,-99.99,,,-99.99,,2013-03-06 16:42:00,
2013-03-06 11:52:00,37.0,32.0,29.81,ENE,57,5.0,-999.0,82,-99.99,,,-99.99,,2013-03-06 16:52:00,
2013-03-06 12:01:00,37.0,32.0,29.81,ENE,57,5.0,-999.0,82,-99.99,,,-99.99,,2013-03-06 17:01:00,
2013-03-06 12:11:00,37.0,32.0,29.81,ENE,57,5.0,-999.0,82,-99.99,,,-99.99,,2013-03-06 17:11:00,
2013-03-06 12:22:00,38.0,32.0,29.81,NNE,28,7.0,-999.0,79,-99.99,,,-99.99,,2013-03-06 17:22:00,
2013-03-06 12:32:00,39.0,32.0,29.80,ENE,57,8.0,-999.0,76,-99.99,,,-99.99,,2013-03-06 17:32:00,
2013-03-06 12:42:00,39.0,32.0,29.80,ENE,57,8.0,-999.0,76,-99.99,,,-99.99,,2013-03-06 17:42:00,
2013-03-06 12:53:00,39.0,32.0,29.81,North,355,5.0,-999.0,77,-99.99,,,-99.99,,2013-03-06 17:53:00,
2013-03-06 13:02:00,37.0,34.0,29.81,NE,55,4.0,-999.0,87,-99.99,,,-99.99,,2013-03-06 18:02:00,
2013-03-06 13:29:00,37.0,34.0,29.80,ENE,61,3.0,-999.0,87,-99.99,,,-99.99,,2013-03-06 18:29:00,
2013-03-06 13:42:00,37.0,33.0,29.80,ENE,76,4.0,-999.0,86,-99.99,,,-99.99,,2013-03-06 18:42:00,
2013-03-06 13:53:00,37.0,33.0,29.81,ENE,70,3.0,-999.0,86,-99.99,,,-99.99,,2013-03-06 18:53:00,
2013-03-06 14:02:00,37.0,34.0,29.80,NW,322,4.0,-999.0,87,-99.99,,,-99.99,,2013-03-06 19:02:00,
2013-03-06 14:11:00,37.0,34.0,29.80,NW,322,4.0,-999.0,87,-99.99,,,-99.99,,2013-03-06 19:11:00,
2013-03-06 14:22:00,37.0,34.0,29.80,North,5,4.0,-999.0,88,-99.99,,,-99.99,,2013-03-06 19:22:00,
2013-03-06 14:32:00,36.0,33.0,29.81,NNW,334,3.0,-999.0,88,-99.99,,,-99.99,,2013-03-06 19:32:00,
2013-03-06 14:43:00,36.0,33.0,29.81,NNW,334,3.0,-999.0,88,-99.99,,,-99.99,,2013-03-06 19:43:00,
2013-03-06 14:53:00,36.0,33.0,29.80,North,355,3.0,-999.0,90,-99.99,,,-99.99,,2013-03-06 19:53:00,
2013-03-06 15:02:00,35.0,33.0,29.80,North,355,4.0,-999.0,91,-99.99,,,-99.99,,2013-03-06 20:02:00,
2013-03-06 15:12:00,35.0,33.0,29.80,North,355,4.0,-999.0,91,-99.99,,,-99.99,,2013-03-06 20:12:00,
2013-03-06 15:22:00,36.0,34.0,29.81,NNE,13,3.0,-999.0,91,-99.99,,,-99.99,,2013-03-06 20:22:00,
2013-03-06 15:32:00,36.0,33.0,29.81,NE,51,6.0,-999.0,89,-99.99,,,-99.99,,2013-03-06 20:32:00,
2013-03-06 15:42:00,36.0,33.0,29.81,NE,51,6.0,-999.0,89,-99.99,,,-99.99,,2013-03-06 20:42:00,
2013-03-06 15:53:00,36.0,32.0,29.81,NNW,331,5.0,-999.0,84,-99.99,,,-99.99,,2013-03-06 20:53:00,
2013-03-06 16:02:00,36.0,31.0,29.82,NNE,33,4.0,-999.0,83,-99.99,,,-99.99,,2013-03-06 21:02:00,
2013-03-06 16:12:00,36.0,31.0,29.82,NNE,33,4.0,-999.0,83,-99.99,,,-99.99,,2013-03-06 21:12:00,
2013-03-06 16:22:00,37.0,31.0,29.83,NW,321,6.0,-999.0,80,-99.99,,,-99.99,,2013-03-06 21:22:00,
2013-03-06 16:32:00,37.0,31.0,29.83,East,82,5.0,-999.0,78,-99.99,,,-99.99,,2013-03-06 21:32:00,
2013-03-06 16:42:00,37.0,31.0,29.83,East,82,5.0,-999.0,78,-99.99,,,-99.99,,2013-03-06 21:42:00,
2013-03-06 16:52:00,37.0,30.0,29.83,NNW,333,5.0,-999.0,75,-99.99,,,-99.99,,2013-03-06 21:52:00,
2013-03-06 17:02:00,37.0,29.0,29.84,NNW,338,5.0,-999.0,74,-99.99,,,-99.99,,2013-03-06 22:02:00,
2013-03-06 17:11:00,37.0,29.0,29.84,NNW,338,5.0,-999.0,74,-99.99,,,-99.99,,2013-03-06 22:11:00,
2013-03-06 17:22:00,37.0,29.0,29.85,NNW,338,4.0,-999.0,74,-99.99,,,-99.99,,2013-03-06 22:22:00,
2013-03-06 17:32:00,37.0,29.0,29.85,North,355,5.0,-999.0,73,-99.99,,,-99.99,,2013-03-06 22:32:00,
2013-03-06 17:42:00,37.0,29.0,29.85,North,355,5.0,-999.0,73,-99.99,,,-99.99,,2013-03-06 22:42:00,
2013-03-06 17:52:00,37.0,29.0,29.86,North,5,5.0,-999.0,73,-99.99,,,-99.99,,2013-03-06 22:52:00,
2013-03-06 18:01:00,37.0,29.0,29.86,North,351,5.0,-999.0,73,-99.99,,,-99.99,,2013-03-06 23:01:00,
2013-03-06 18:11:00,37.0,29.0,29.86,North,351,5.0,-999.0,73,-99.99,,,-99.99,,2013-03-06 23:11:00,
2013-03-06 18:22:00,37.0,29.0,29.86,NNW,333,5.0,-999.0,73,-99.99,,,-99.99,,2013-03-06 23:22:00,
2013-03-06 18:32:00,37.0,29.0,29.86,NW,317,5.0,-999.0,73,-99.99,,,-99.99,,2013-03-06 23:32:00,
2013-03-06 18:42:00,37.0,29.0,29.86,NW,317,5.0,-999.0,73,-99.99,,,-99.99,,2013-03-06 23:42:00,
2013-03-06 18:52:00,36.0,29.0,29.88,West,263,4.0,-999.0,75,-99.99,,,-99.99,,2013-03-06 23:52:00,
2013-03-06 19:02:00,36.0,29.0,29.89,NE,37,5.0,-999.0,75,-99.99,,,-99.99,,2013-03-07 00:02:00,
2013-03-06 19:11:00,36.0,29.0,29.89,NE,37,5.0,-999.0,75,-99.99,,,-99.99,,2013-03-07 00:11:00,
2013-03-06 19:21:00,36.0,29.0,29.89,North,5,6.0,-999.0,75,-99.99,,,-99.99,,2013-03-07 00:21:00,
2013-03-06 19:32:00,36.0,29.0,29.89,NNW,340,6.0,-999.0,75,-99.99,,,-99.99,,2013-03-07 00:32:00,
2013-03-06 19:42:00,36.0,29.0,29.89,NNW,340,6.0,-999.0,75,-99.99,,,-99.99,,2013-03-07 00:42:00,
2013-03-06 19:52:00,36.0,29.0,29.89,NNE,29,6.0,-999.0,75,-99.99,,,-99.99,,2013-03-07 00:52:00,
2013-03-06 20:01:00,36.0,29.0,29.89,NNW,327,5.0,-999.0,74,-99.99,,,-99.99,,2013-03-07 01:01:00,
2013-03-06 20:11:00,36.0,29.0,29.89,NNW,327,5.0,-999.0,74,-99.99,,,-99.99,,2013-03-07 01:11:00,
2013-03-06 20:21:00,36.0,28.0,29.90,ENE,65,7.0,-999.0,73,-99.99,,,-99.99,,2013-03-07 01:21:00,
2013-03-06 20:32:00,36.0,28.0,29.90,NNE,26,5.0,-999.0,73,-99.99,,,-99.99,,2013-03-07 01:32:00,
2013-03-06 20:42:00,36.0,28.0,29.90,NNE,26,5.0,-999.0,73,-99.99,,,-99.99,,2013-03-07 01:42:00,
2013-03-06 20:52:00,36.0,29.0,29.90,ENE,69,4.0,-999.0,74,-99.99,,,-99.99,,2013-03-07 01:52:00,
2013-03-06 21:01:00,35.0,28.0,29.90,NNW,329,7.0,-999.0,74,-99.99,,,-99.99,,2013-03-07 02:01:00,
2013-03-06 21:11:00,35.0,28.0,29.90,NNW,329,7.0,-999.0,74,-99.99,,,-99.99,,2013-03-07 02:11:00,
2013-03-06 21:21:00,35.0,28.0,29.90,NNW,329,7.0,-999.0,74,-99.99,,,-99.99,,2013-03-07 02:21:00,
2013-03-06 21:32:00,35.0,28.0,29.91,NNE,28,5.0,-999.0,76,-99.99,,,-99.99,,2013-03-07 02:32:00,
2013-03-06 21:42:00,35.0,28.0,29.91,NNE,28,5.0,-999.0,76,-99.99,,,-99.99,,2013-03-07 02:42:00,
2013-03-06 21:52:00,35.0,28.0,29.91,NNE,28,5.0,-999.0,76,-99.99,,,-99.99,,2013-03-07 02:52:00,
2013-03-06 22:02:00,34.0,27.0,29.91,North,355,4.0,-999.0,75,-99.99,,,-99.99,,2013-03-07 03:02:00,
2013-03-06 22:11:00,34.0,27.0,29.91,North,5,5.0,-999.0,76,-99.99,,,-99.99,,2013-03-07 03:11:00,
2013-03-06 22:22:00,34.0,27.0,29.91,North,5,5.0,-999.0,76,-99.99,,,-99.99,,2013-03-07 03:22:00,
2013-03-06 22:32:00,34.0,27.0,29.91,NNE,30,5.0,-999.0,76,-99.99,,,-99.99,,2013-03-07 03:32:00,
2013-03-06 22:42:00,34.0,27.0,29.91,NNE,30,5.0,-999.0,76,-99.99,,,-99.99,,2013-03-07 03:42:00,
2013-03-06 22:52:00,34.0,27.0,29.91,North,5,4.0,-999.0,74,-99.99,,,-99.99,,2013-03-07 03:52:00,
2013-03-06 23:01:00,34.0,27.0,29.91,NE,48,4.0,-999.0,74,-99.99,,,-99.99,,2013-03-07 04:01:00,
2013-03-06 23:12:00,34.0,27.0,29.91,NE,48,4.0,-999.0,74,-99.99,,,-99.99,,2013-03-07 04:12:00,
2013-03-06 23:22:00,34.0,26.0,29.91,NNE,21,5.0,-999.0,73,-99.99,,,-99.99,,2013-03-07 04:22:00,
2013-03-06 23:32:00,34.0,26.0,29.91,NNW,327,5.0,-999.0,73,-99.99,,,-99.99,,2013-03-07 04:32:00,
2013-03-06 23:42:00,34.0,26.0,29.91,NNW,327,5.0,-999.0,73,-99.99,,,-99.99,,2013-03-07 04:42:00,
2013-03-06 23:52:00,34.0,26.0,29.91,NW,311,5.0,-999.0,73,-99.99,,,-99.99,,2013-03-07 04:52:00,